Regional Weather Roundup
Issued by NWS

Home | Current Version | Previous Version | Graphics & Text | Print | Product List | Glossary On
Versions: 1 2 3 4 5 6 7 8 9 10 11 12 13 14 15 16 17 18 19 20 21 22 23 24 25 26 27 28 29 30 31 32 33 34 35 36 37 38 39 40 41 42 43 44 45 46 47 48 49 50
000
ASUS45 KBOI 222010
RWRID

IDAHO REGIONAL WEATHER ROUNDUP
NATIONAL WEATHER SERVICE BOISE ID
200 PM MDT SAT JUL 22 2017

NOTE: "FAIR" INDICATES FEW OR NO CLOUDS BELOW 12000 FEET
WITH NO SIGNIFICANT WEATHER AND/OR OBSTRUCTIONS TO VISIBILITY

IDZ012-014-222100-
SOUTHWEST IDAHO


CITY           SKY/WX    TMP DP  RH WIND       PRES   REMARKS
BOISE          SUNNY     91  40  16 NW14      30.10F
CALDWELL       SUNNY     89  37  16 NW9       30.10F
MOUNTAIN HOME  SUNNY     94  38  14 NW8G17    30.09F
$$

IDZ016-017-222100-
SOUTHCENTRAL IDAHO


CITY           SKY/WX    TMP DP  RH WIND       PRES   REMARKS
BURLEY         SUNNY     83  38  20 NW6       30.16F
JEROME         SUNNY     83  39  21 VRB7      30.18F
TWIN FALLS     SUNNY     86  39  19 W9        30.18F
$$

IDZ019>023-222100-
SOUTHEAST IDAHO


CITY           SKY/WX    TMP DP  RH WIND       PRES   REMARKS
IDAHO FALLS    SUNNY     83  45  26 NW5       30.21F
POCATELLO      SUNNY     85  39  19 NW8       30.20F
REXBURG        SUNNY     82  44  26 SW8       30.21F
$$

IDZ006-010-011-018-031-032-222100-
CENTRAL IDAHO MOUNTAINS


CITY           SKY/WX    TMP DP  RH WIND       PRES   REMARKS
MCCALL         SUNNY     80  24  12 VRB3      30.24F
HAILEY         SUNNY     82  45  26 SE7       30.24F
STANLEY          N/A     82  26  13 NE9       30.32F
SALMON         NOT AVBL
CHALLIS        SUNNY     84  31  14 NE6       30.21F
$$

IDZ002-004-006-007-026-222100-
NORTHERN IDAHO


CITY           SKY/WX    TMP DP  RH WIND       PRES   REMARKS
LEWISTON       SUNNY     87  42  20 VRB3      30.14F
LOWELL           N/A     88  42  20 CALM      30.11F
COEUR D`ALENE  SUNNY     82  46  28 VRB3      30.18F
MULLAN PASS    SUNNY     68  39  34 N5        30.35S
$$



USA.gov is the U.S. government's official web portal to all federal, state and local government web resources and services.